Snowfall_Accumulation
0.0 0.0 0.0 0.0 0.0 0.0 0.0 0.0 0.0 0.0 0.0 0.0 0.0 0.0 0.0 0.0 0.0 0.0 0.0 0.0 0.0 0.0 0.0 0.0 0.0 0.0 0.0 0.0 0.0 0.0 0.0 0.0 0.0 0.0 0.0 0.0 0.0 0.0 0.0 0.0 0.0 0.0 0.0 0.0 0.0 0.0 0.0
0.0 0.0 0.0 0.0 0.0 0.0 0.0 0.0 0.0 0.0 0.0 0.0 0.0 0.0 0.0 0.0 0.0 0.0 0.0 0.0 0.0 0.0 0.0 0.0 0.0 0.0 0.0 0.0 0.0 0.0 0.0 0.0 0.0 0.0 0.0 0.0 0.0 0.0 0.0 0.0 0.0 0.0 0.0 0.0 0.0 0.0 0.0
0.0 0.0 0.0 0.0 0.0 0.0 0.0 0.0 0.0 0.0 0.0 0.0 0.0 0.0 0.0 0.0 0.0 0.0 0.0 0.0 0.0 0.0 0.0 0.0 0.0 0.0 0.0 0.0 0.0 0.0 0.0 0.0 0.0 0.0 0.0 0.0 0.0 0.0 0.0 0.0 0.0 0.0 0.0 0.0 0.0 0.0 0.0
0.0 0.0 0.0 0.0 0.0 0.0 0.0 0.0 0.0 0.0 0.0 0.0 0.0 0.0 0.0 0.0 0.0 0.0 0.0 0.0 0.0 0.0 0.0 0.0 0.0 0.0 0.0 0.0 0.0 0.0 0.0 0.0 0.0 0.0 0.0 0.0 0.0 0.0 0.0 0.0 0.0 0.0 0.0 0.0 0.0 0.0 0.0
0.0 0.0 0.0 0.0 0.0 0.0 0.0 0.0 0.0 0.0 0.0 0.0 0.0 0.0 0.0 0.0 0.0 0.0 0.0 0.0 0.0 0.0 0.0 0.0 0.0 0.0 0.0 0.0 0.0 0.0 0.0 0.0 0.0 0.0 0.0 0.0 0.0 0.0 0.0 0.0 0.0 0.0 0.0 0.0 0.0 0.0 0.0
0.0 0.0 0.0 0.0 0.0 0.0 0.0 0.0 0.0 0.0 0.0 0.0 0.0 0.0 0.0 0.0 0.0 0.0 0.0 0.0 0.0 0.0 0.0 0.0 0.0 0.0 0.0 0.0 0.0 0.0 0.0 0.0 0.0 0.0 0.0 0.0 0.0 0.0 0.0 0.0 0.8 0.0 0.1 0.0 0.0 0.0 0.0
0.0 0.0 0.0 0.0 0.0 0.0 0.0 0.0 0.0 0.0 0.0 0.0 0.0 0.0 0.0 0.0 0.0 0.0 0.0 0.0 0.0 0.0 0.0 0.0 0.0 0.0 0.0 0.0 0.0 0.0 0.0 0.0 0.0 0.0 0.0 0.0 0.0 0.0 0.0 0.0 0.1 0.6 0.6 0.0 0.0 0.0 0.0
0.0 0.0 0.0 0.0 0.0 0.0 0.0 0.0 0.0 0.0 0.0 0.0 0.0 0.0 0.0 0.0 0.0 0.0 0.0 0.0 0.0 0.0 0.0 0.0 0.0 0.0 0.0 0.0 0.0 0.0 0.0 0.0 0.0 0.0 0.0 0.0 0.1 0.0 0.0 0.0 0.0 0.0 0.1 0.6 0.0 0.0 0.0
0.0 0.0 0.0 0.0 0.0 0.0 0.0 0.0 0.0 0.0 0.0 0.0 0.0 0.0 0.0 0.0 0.0 0.0 0.0 0.0 0.0 0.0 0.2 0.0 0.0 0.0 0.0 0.0 0.0 0.0 0.0 0.0 0.0 0.0 0.1 0.0 0.0 0.0 0.0 0.0 0.1 0.0 0.0 0.0 0.0 0.0 0.0
0.0 0.0 0.0 0.0 0.0 0.0 0.0 0.0 0.0 0.0 0.0 0.0 0.0 0.0 0.0 0.0 0.0 0.0 0.0 0.0 0.0 0.0 3.6 0.3 0.0 0.0 0.0 0.0 0.0 0.0 0.0 0.0 0.0 0.0 0.0 0.0 0.0 0.0 0.0 0.2 0.4 3.1 0.0 0.0 0.0 0.0 2.7
0.0 0.0 0.0 0.0 0.0 0.0 0.0 0.0 0.0 0.0 0.0 0.0 0.0 0.0 0.0 0.0 0.0 0.0 0.0 0.0 0.0 0.0 65.0 0.0 0.0 0.0 0.0 0.0 0.0 0.0 0.0 0.0 0.0 0.0 0.0 0.4 0.0 0.0 0.2 0.2 0.0 0.0 0.1 0.0 0.0 6.3 7.2
0.0 0.0 0.0 0.0 0.0 0.0 0.0 0.0 0.0 0.0 0.0 0.0 0.0 0.0 0.0 0.0 0.0 0.0 0.0 0.0 0.0 18.5 58.0 0.0 0.0 0.1 0.0 0.0 0.0 0.0 0.0 0.0 0.0 0.0 0.0 0.0 0.0 0.0 0.5 0.0 0.0 0.0 0.0 0.0 0.8 4.0 17.0
0.0 0.0 0.0 0.0 0.0 0.0 0.0 0.0 0.0 0.0 0.0 0.0 0.0 0.0 0.0 0.0 0.0 0.0 0.0 0.0 63.6 63.4 0.0 0.0 0.1 0.5 0.0 0.3 0.6 0.0 2.5 1.0 3.4 6.3 2.0 0.0 0.1 0.0 0.0 0.0 0.0 0.2 1.8 31.7 29.8 31.4 26.4
0.0 0.0 0.0 0.0 0.0 0.0 0.0 0.0 0.0 0.0 0.0 0.0 0.0 0.0 0.0 0.0 0.0 0.0 0.0 10.4 70.6 12.1 0.1 0.0 0.0 0.0 1.2 1.9 1.3 1.1 0.0 2.9 5.3 6.5 7.6 6.1 7.5 1.9 1.6 0.9 2.6 1.1 3.3 20.5 35.7 20.0 14.3
0.0 0.0 0.0 0.0 0.0 0.0 0.0 0.0 0.0 0.0 0.0 0.0 0.0 0.0 0.0 0.0 0.0 0.0 4.7 73.5 31.3 3.3 1.0 1.6 0.0 1.7 3.2 2.3 3.6 2.2 0.3 3.9 6.9 10.5 26.0 29.3 14.6 6.6 5.2 2.4 1.5 2.2 5.0 1.0 15.2 2.8 22.5
0.0 0.0 0.0 0.0 0.0 0.0 0.0 0.0 0.0 0.0 0.0 0.0 0.0 0.0 0.0 0.0 0.0 0.0 36.4 46.6 10.0 1.9 3.0 3.2 11.2 11.2 11.0 4.9 9.1 13.0 11.6 12.1 12.0 15.0 11.6 35.1 33.9 12.4 4.9 0.0 0.0 6.8 3.1 11.6 13.0 59.9 48.4
0.0 0.0 0.0 0.0 0.0 0.0 0.0 0.0 0.0 0.0 0.0 0.0 0.0 1.3 0.0 0.0 0.0 4.2 63.3 18.1 3.7 0.0 0.1 8.4 15.7 14.9 10.2 10.0 10.9 13.4 12.6 3.5 3.6 7.7 5.3 16.5 27.6 10.0 5.1 12.8 19.3 20.7 23.9 24.8 34.3 49.4 51.4
0.0 0.0 0.0 0.0 0.0 0.0 0.0 0.0 0.0 0.0 0.0 0.0 0.0 26.0 0.0 0.0 21.6 41.6 28.8 7.8 0.5 0.1 0.1 2.9 5.1 9.1 11.9 11.9 14.1 18.4 12.5 4.0 0.3 2.6 5.7 4.7 19.1 12.0 6.7 1.6 1.6 7.6 21.9 34.1 54.6 49.8 47.5
0.0 0.0 0.0 0.0 0.0 0.0 0.0 0.0 0.0 0.0 0.0 0.0 12.6 7.9 0.0 0.0 39.8 25.1 5.9 3.4 2.6 3.7 2.0 4.8 7.7 10.9 12.8 14.7 16.1 10.6 8.9 1.3 0.0 2.2 9.3 7.1 17.8 13.2 8.7 1.3 0.5 7.6 8.2 16.8 31.0 41.4 51.4
0.0 0.0 0.0 0.0 0.0 0.0 0.0 0.0 0.0 0.0 0.0 0.0 7.4 42.2 5.9 5.4 3.3 7.0 10.1 8.0 7.7 0.0 2.5 0.9 8.8 9.9 11.4 6.9 7.2 9.4 7.2 1.7 0.0 0.4 0.0 0.4 15.0 15.1 13.7 13.7 10.2 15.1 10.6 7.9 19.5 47.5 34.0
0.0 0.0 0.0 0.0 0.0 0.0 0.0 0.0 0.0 0.0 0.0 0.0 21.9 38.3 0.4 24.6 18.0 9.2 8.9 10.9 7.8 6.3 1.0 0.7 9.1 8.1 11.3 13.6 6.8 4.5 4.8 3.4 0.2 0.9 0.5 1.8 17.5 9.4 6.6 7.4 4.7 7.3 13.6 10.3 13.9 15.5 26.2
0.0 0.0 0.0 0.0 0.0 0.0 0.0 0.0 0.0 0.0 0.0 0.0 63.1 14.9 4.5 5.0 1.1 8.1 16.6 16.6 8.1 2.7 9.5 4.8 5.9 3.8 6.1 11.2 7.6 8.3 5.6 2.4 5.1 0.1 0.7 1.0 9.2 10.2 8.9 6.1 3.2 12.6 11.8 8.6 8.6 10.3 12.6
0.0 0.0 0.0 0.0 0.0 0.0 0.0 0.0 0.0 0.0 0.0 0.0 3.1 0.0 11.6 5.3 4.1 10.3 9.7 6.1 6.3 6.9 0.6 2.3 5.1 7.9 7.0 4.5 1.2 1.1 1.9 2.2 4.2 5.9 5.3 5.9 8.7 7.9 9.2 2.4 5.6 15.3 17.2 9.0 6.6 4.2 4.8
0.0 0.0 0.0 0.0 0.0 0.0 0.0 0.0 0.0 0.0 0.0 0.0 0.0 1.4 25.8 21.2 9.9 6.5 3.3 4.3 5.6 5.0 8.8 2.8 1.3 5.1 0.0 0.0 0.0 0.0 0.9 0.5 0.4 1.8 2.4 7.6 7.2 9.7 9.2 6.3 28.4 12.5 4.2 3.3 2.4 2.3 3.1
0.0 0.0 0.0 0.0 0.0 0.0 0.0 0.0 0.0 0.0 0.0 0.0 0.0 0.2 20.1 20.8 5.2 6.2 4.7 5.5 1.5 3.1 4.7 3.4 1.2 0.0 0.0 1.8 6.6 7.2 3.9 3.1 1.1 0.4 1.2 2.3 7.5 15.7 15.0 9.3 11.8 10.8 2.7 2.8 2.9 2.9 2.3
0.0 0.0 0.0 0.0 0.0 0.0 0.0 0.0 0.0 0.0 0.0 0.0 0.0 0.0 11.8 31.4 9.4 2.0 8.1 6.0 8.3 5.4 6.4 3.7 0.0 0.0 0.0 6.1 13.0 14.9 6.0 4.7 2.5 2.5 0.0 1.6 5.0 21.4 19.7 16.5 20.6 8.5 0.7 0.1 1.8 5.4 1.3
0.0 0.0 0.0 0.0 0.0 0.0 0.0 0.0 0.0 0.0 0.0 0.0 0.0 0.0 6.3 37.0 1.3 1.6 4.9 8.4 5.5 7.5 10.6 2.3 4.6 1.6 2.3 11.3 14.1 12.2 9.8 5.0 7.9 6.8 5.4 9.9 13.3 25.5 23.6 25.4 17.0 2.0 1.1 0.5 8.6 9.4 1.5
0.0 0.0 0.0 0.0 0.0 0.0 0.0 0.0 0.0 0.0 0.0 0.0 0.0 0.0 0.0 21.4 1.6 0.0 0.3 2.7 5.0 5.0 10.6 7.4 12.7 11.3 14.5 18.8 16.0 12.5 12.2 10.5 7.2 3.8 9.3 11.9 16.7 15.8 18.6 24.4 23.6 2.8 1.9 5.0 6.3 1.3 0.9
0.0 0.0 0.0 0.0 0.0 0.0 0.0 0.0 0.0 0.0 0.0 0.0 4.7 0.0 0.0 4.3 0.3 0.0 0.0 0.0 0.0 0.0 4.7 6.4 12.2 11.1 13.6 22.6 16.6 8.9 9.6 11.4 8.1 12.6 4.1 14.0 10.4 13.7 10.8 16.9 8.7 6.5 5.6 2.4 2.2 2.3 2.2